Weather Roundup
Issued by NWS

Home | Current Version | Previous Version | Text Only | Print | Product List | Glossary On
Versions: 1 2 3 4 5 6 7 8 9 10 11 12 13 14 15 16 17 18 19 20 21 22 23 24 25 26 27 28 29 30 31 32 33 34 35 36 37 38 39 40 41 42 43 44 45 46 47 48 49 50
000
NZUS93 KARX 250310
HRRWXR

CURRENT HOURLY OBSERVATIONS ACROSS
MUCH OF THE UPPER MISSISSIPPI VALLEY
NATIONAL WEATHER SERVICE LA CROSSE WI
1000 PM CDT THU MAY 24 2018


...SOUTHEAST MINNESOTA...


CITY           SKY/WX    TMP DP  RH WIND       PRES   REMARKS
ROCHESTER      FAIR      77  60  55 S13       29.94R
ROCHESTER/MAYO FAIR      80  58  46 S10       29.94R
WINONA         FAIR      77  61  57 CALM      29.93R
AUSTIN         FAIR      75  61  60 S8        29.94R
ALBERT LEA     MOCLDY    79  57  47 SW14G24   29.95R
DODGE CENTER   LGT RAIN  75  61  60 S10       29.94R
PRESTON        FAIR      76  58  54 S10       29.96S
OWATONNA       MOCLDY    73  64  73 N5        29.92R
FARIBAULT      MOCLDY    66  66 100 CALM      29.91F
$$

...ELSEWHERE IN MINNESOTA...


CITY           SKY/WX    TMP DP  RH WIND       PRES   REMARKS
MINNEAPOLIS    CLOUDY    70  66  87 SE14      29.89F
INTNL FALLS    FAIR      66  64  93 SE6       29.75F
DULUTH         FAIR      62  60  93 SE5       29.83F
RED WING       TSTM      68  63  83 E8        29.93F
REDWOOD FALLS  CLOUDY    77  61  57 S8        29.81F
MANKATO        MOCLDY    74  63  68 SE8       29.89R
WORTHINGTON    MOCLDY    69  59  70 S9        29.88R
FAIRMONT       CLOUDY    75  60  59 S22       29.89F
$$

...SOUTHWEST WISCONSIN...


CITY           SKY/WX    TMP DP  RH WIND       PRES   REMARKS
LA CROSSE      MOCLDY    78  66  66 S3        29.93R
PRAIRIE DU CHI FAIR      76  62  61 E3        29.96R
BOSCOBEL       FAIR      75  65  70 CALM      29.96R
LONE ROCK      FAIR      73  66  78 E3        29.97R
PLATTEVILLE    FAIR      74  65  72 S7        30.00S
FORT MC COY    FAIR      70  64  82 CALM      29.96R
CAMP DOUGLAS   FAIR      69  65  90 S3        29.97R
MAUSTON-NEW LI FAIR      69  65  85 S3        29.97R
VIROQUA        FAIR      76  64  65 S8        29.98R
WIS DELLS      FAIR      72  62  71 S3        29.99R
$$

...ELSEWHERE IN WISCONSIN...


CITY           SKY/WX    TMP DP  RH WIND       PRES   REMARKS
MILWAUKEE      FAIR      71  51  49 S9        30.02S
MADISON        MOCLDY    77  62  59 S7        29.98S
GREEN BAY      FAIR      71  58  63 S9        29.97S
EAU CLAIRE     FAIR      79  64  60 SW9       29.91R
BLACK RVR FLS  FAIR      75  62  63 CALM      29.94R
MEDFORD        FAIR      71  61  71 S8        29.96R
WAUSAU         FAIR      76  60  57 S6        29.95R
WIS RAPIDS     FAIR      75  61  61 S7        29.97S
MARSHFIELD     FAIR      72  62  71 S8        29.96S
RICE LAKE      FAIR      77  59  53 SW12G26   29.93R
$$

...NORTHEAST IOWA...


CITY           SKY/WX    TMP DP  RH WIND       PRES   REMARKS
WATERLOO       FAIR      76  63  64 S8        29.95R
DUBUQUE        FAIR      75  60  59 S10       30.00R
DECORAH        FAIR      77  64  65 S6        29.96R
MASON CITY     CLOUDY    76  63  64 W16G24    29.98R
CHARLES CITY   FAIR      75  61  60 S9G15     29.97R
OELWEIN        FAIR      77  64  65 S12       29.98R
$$

...ELSEWHERE IN IOWA...


CITY           SKY/WX    TMP DP  RH WIND       PRES   REMARKS
DES MOINES     MOCLDY    77  65  66 S7        29.95S
IOWA CITY      FAIR      75  61  61 SE5       30.00R
FORT DODGE     MOCLDY    77  64  64 S7        29.95R
MARSHALLTOWN   CLEAR     76  65  68 S8        29.96R
CEDAR RAPIDS   FAIR      77  61  57 S8        29.98R
$$

...NORTHERN ILLINOIS...


CITY           SKY/WX    TMP DP  RH WIND       PRES   REMARKS
CHICAGO-OHARE  FAIR      73  53  49 SE5       30.03R
CHICAGO-MIDWAY FAIR      75  54  47 SE7       30.03S
MOLINE         FAIR      77  60  55 S6        29.99S
ROCKFORD       FAIR      72  60  66 S3        30.02S
PEORIA         FAIR      74  62  66 CALM      30.02S
$$

NOTE: "FAIR" INDICATES FEW OR NO CLOUDS BELOW 12,000 FEET WITH NO
SIGNIFICANT WEATHER AND/OR OBSTRUCTIONS TO VISIBILITY. WIND
SPEEDS ARE IN MILES-PER-HOUR.




USA.gov is the U.S. government's official web portal to all federal, state and local government web resources and services.